Home > Weather > Legnica > Past weeks

Flag for Poland Weather for the Past 2 Weeks in Legnica, Poland

Now
46 °F

Overcast.


Feels Like: 44 °F
Forecast: 44 / 51 °F
Wind: 3 mph from South

Location: Wroclaw Ii

Current Time: Feb 8, 2016 at 10:13:46 AM

Latest Report: Feb 8, 2016 at 9:00 AM


Visibility: 25 mi

Pressure: 29.76 "Hg

Humidity: 70%

Dew point: 36 °F

Location of LegnicaLocation

Historic Weather in Legnica — Graph

°F

Legnica Temperature Yesterday

Maximum temperature yesterday: 51 °F (at 2:00 PM)
Minimum temperature yesterday: 37 °F (at 6:00 AM)
Average temperature yesterday: 45 °F

High & Low Weather Summary for the Past Weeks

 TemperatureHumidityPressure
High57 °F (Feb 2, 11:00 AM)99% (Jan 26, 4:00 AM)30.50 "Hg (Jan 26, 4:00 AM)
Low33 °F (Jan 24, 8:00 PM)46% (Jan 30, 4:00 PM)29.68 "Hg (Jan 30, 9:00 PM)
Average44 °F77%30.07 "Hg
* Reported Jan 24 8:00 AM — Feb 8 8:00 AM, Legnica, Weather by CustomWeather, © 2016

Note: Actual official high and low records may vary slightly from our data, if they occured in-between our weather recording intervals... More about our weather records

Advertising

Legnica Weather History for the Previous 24 Hours

 ConditionsComfort  
Time TempWeatherWind HumidityBarometerVisibility
8:00 AM
Mon, Feb 8
44 °FOvercast.2 mph76%29.79 "Hg25 mi
7:00 AM46 °FOvercast.6 mph71%29.79 "Hg25 mi
6:00 AM46 °FOvercast.7 mph71%29.79 "Hg25 mi
5:00 AM46 °FOvercast.5 mph73%29.80 "Hg25 mi
3:00 AM47 °FOvercast.5 mph74%29.82 "Hg25 mi
2:00 AM48 °FOvercast.6 mph73%29.80 "Hg25 mi
12:00 AM47 °FOvercast.2 mph72%29.78 "Hg19 mi
11:00 PM
Sun, Feb 7
48 °FOvercast.3 mph71%29.76 "Hg25 mi
10:00 PM48 °FPassing clouds.6 mph72%29.73 "Hg25 mi
9:00 PM47 °FPassing clouds.5 mph74%29.73 "Hg25 mi
8:00 PM47 °FPassing clouds.5 mph74%29.73 "Hg25 mi
7:00 PMN/APassing clouds.32 mphN/AN/A17 mi
6:00 PMN/APassing clouds.32 mphN/AN/A1 mi
5:00 PM47 °FPassing clouds.6 mph68%29.73 "Hg25 mi
4:00 PM49 °FPartly sunny.8 mph63%29.72 "Hg25 mi
3:00 PM51 °FPartly sunny.8 mph61%29.72 "Hg25 mi
2:00 PM51 °FPartly sunny.8 mph59%29.73 "Hg25 mi
1:00 PM51 °FPartly sunny.5 mph58%29.75 "Hg25 mi
12:00 PM49 °FPartly sunny.6 mph61%29.77 "Hg25 mi
11:00 AMN/APassing clouds.20 mphN/AN/A4 mi
10:00 AM47 °FOvercast.12 mph64%29.78 "Hg25 mi
Weather by CustomWeather, © 2016

See weather overviewHow to use our weather pages